Regional Weather Roundup
Issued by NWS

Home | Current Version | Previous Version | Graphics & Text | Print | Product List | Glossary On
Versions: 1 2 3 4 5 6 7 8 9 10 11 12 13 14 15 16 17 18 19 20 21 22 23 24 25 26 27 28 29 30 31 32 33 34 35 36 37 38 39 40 41 42 43 44 45 46 47 48 49 50
000
ASUS45 KCYS 010910
RWRWY

WYOMING REGIONAL WEATHER ROUNDUP
NATIONAL WEATHER SERVICE CHEYENNE WY
300 AM MDT MON SEP 01 2014

NOTE:  "FAIR" INDICATES FEW OR NO CLOUDS BELOW 12,000 FEET
WITH NO SIGNIFICANT WEATHER AND/OR OBSTRUCTIONS TO VISIBILITY.

WYZ001-011000-
YELLOWSTONE NATIONAL PARK

CITY           SKY/WX    TMP DP  RH WIND       PRES   REMARKS
LK YELLOWSTONE NOT AVBL
W YELLOWSTONE  NOT AVBL

$$
WYZ002>013-054>058-071-098>099-011000-
NORTHERN WYOMING

CITY           SKY/WX    TMP DP  RH WIND       PRES   REMARKS
JACKSON        PTCLDY    39  37  93 CALM      30.09S
CODY           CLOUDY    52  46  82 CALM      30.00F
GREYBULL       CLOUDY    52  51  97 SE3       29.96F
WORLAND        MOCLDY    53  49  86 S7        29.97F
SHERIDAN       MOCLDY    53  44  71 SE8       29.95F
BUFFALO        LGT RAIN  53  39  59 NW6       29.99S
GILLETTE       PTCLDY    49  43  80 NE5       29.95S
HULETT         FAIR      48  45  87 MISG      29.95
NEWCASTLE      FAIR      45  45 100 N6        29.97

$$
WYZ014>020-022>026-101>103-011000-
CENTRAL WYOMING

CITY           SKY/WX    TMP DP  RH WIND       PRES   REMARKS
BIG PINEY      PTCLDY    36  33  89 E6        30.13F WCI  31
PINEDALE       SUNNY     32  32 100 CALM      30.14S
DUBOIS         FAIR      39  32  75 NW9       30.09F WCI  33
LANDER         PTCLDY    51  40  65 SW3       30.03S
RIVERTON       PTCLDY    52  41  66 SW6       30.03F
CASPER         MOCLDY    47  44  90 W7        30.02F
DOUGLAS        PTCLDY    45  43  93 CALM      30.02S

$$
WYZ021-027>030-104>119-011000-
SOUTHERN WYOMING

CITY           SKY/WX    TMP DP  RH WIND       PRES   REMARKS
EVANSTON       CLEAR     46  30  53 S6        30.14S
KEMMERER       SUNNY     39  34  81 CALM      30.15S
FORT BRIDGER   FAIR      47  31  53 SW8       30.16S
ROCK SPRINGS   CLEAR     44  32  62 S7        30.13S
DIXON          FAIR      43  40  89 CALM      30.16S
RAWLINS        PTCLDY    46  36  68 SW5       30.10F
SARATOGA       FAIR      45  36  70 CALM      30.14S
LARAMIE        PTCLDY    43  36  76 W5        30.11F
CHEYENNE       CLEAR     45  41  86 W9        30.08R
TORRINGTON     CLEAR     48  47  96 SW3       29.99R
PINE BLUFFS    FAIR      43  41  93 W5        30.04F

$$


USA.gov is the U.S. government's official web portal to all federal, state and local government web resources and services.